Showing default

OPS 6582 (TRANSIT 5B-5), 965

Orbit data source: Space-Track

OPS 6582 (TRANSIT 5B-5), 965 is a payload satellite owned by USN BuWeps (US) in LEO that was launched on Sun, 13 Dec 1964 UTC via a THOR ABLESTAR launch vehicle from the Air Force Western Test Range (AFWTR). Payload-class satellites include a variety of spacecraft equipped with specific instruments for various scientific and technological missions. These include communications satellites like Starlink; space stations such as the ISS; scientific satellites like the Hubble; Earth observation satellites from companies like Planet Labs, Umbra, and HawkEye 360; GPS; miniature CubeSats for education and research; and military/defense satellites.

Loading next visibility...
Identifier
965, 1964-083D
Orbit
LEO
Country
Flag of USUS
Related business
Manufacturer
NAFI
Mission
Spacecraft
Bus & Motor
TRANSIT 5, Unknown motor
Mass
~54 kg wet, ~54 kg dry
Launch date (UTC)
1964-12-13 (62 years ago)
Launch vehicle
THOR ABLESTAR
Launch site
Air Force Western Test Range (AFWTR)
Object type
Payload
Rocket body
Debris
Shape & HBR
Unknown
Radar Cross Section
Large (>1 m²)

Expand to show TLE details & history
Last TLE update: 17 hours ago

TLE from 17 hours ago
0 OPS 6582 (TRANSIT 5B-5)
1 00965U 64083D   26202.47299192  .00000059  00000-0  69971-4 0  9996
2 00965  90.0762 203.3136 0041718 174.6944 338.0707 13.57015535 48263
Epoch: 2026-07-21T11:21Z
TLE epoch observation values (Epoch: 2026-07-21T11:21:06.501Z)
Latitude
27.45167°
Longitude
-86.16629°
Altitude
1,021.263 km
Speed
7.358 km/s
True Right ascension
01h 33m 24s
True Declination
27° 18' 58"
Sunlit
Object was in daylight at epoch
Visualization orbit readout
Latitude
Unknown
Longitude
Unknown
Altitude
Unknown
Speed
Unknown
Apparent Right ascension
Unknown
Apparent Declination
Unknown
Sunlit
N/A
Visualization observer readout
Local Sidereal Time
17:36:17
Azimuth
Unknown
Elevation
Unknown
Doppler factor
Unknown
Orbital elements
Apogee altitude
1,074.56 km
Perigee altitude
1,012.636 km
Semi-major axis
7,421.735 km
Eccentricity
0.00417
Inclination
90.0762°
RAAN
203.3136°
Arg. of periapsis
174.6944°
True anomaly
337.8913°
Mean anomaly
338.0707°
Eccentric anomaly
337.98109°
Mean motion
3.39457 °/min
Orbital period
106.05 mins
BSTAR
0.000069971
Loading maneuver chart data...
Computing Atmospheric mass density...

Documentation

Showing up to 5 results
|